Rifle, CO

1:56 AM MST on February 24, 2017 (GMT -0700)
Garfield County Regional

Weather History for KRIL - August, 2013

Change the Weather History Date:

Friday, August 23, 2013

  Actual Average Record
Temperature  
Mean Temperature 73 °F 69 °F  
Max Temperature 87 °F 87 °F 99 °F (1931)
Min Temperature 58 °F 52 °F 37 °F (1959)
Degree Days  
Heating Degree Days 0 0  
Month to date heating degree days 0 0  
Since 1 June heating degree days 13 60  
Since 1 July heating degree days 0 1  
Cooling Degree Days 8 4  
Month to date cooling degree days 145 147  
Year to date cooling degree days 642 490  
Since 1 June cooling degree days 635 483  
Growing Degree Days 22 (Base 50)    
Moisture  
Dew Point 51 °F    
Average Humidity 50    
Maximum Humidity 73    
Minimum Humidity 27    
Precipitation  
Precipitation T in 0.04 in 0.56 in (2014)
Month to date precipitation 0.10 1.01  
Year to date precipitation 4.86 8.58  
Sea Level Pressure  
Sea Level Pressure 29.95 in    
Wind  
Wind Speed 7 mph (ENE)    
Max Wind Speed 58 mph    
Max Gust Speed 69 mph    
Visibility 10 miles    
Events Thunderstorm    
T = Trace of Precipitation, MM = Missing Value Source: NWS Daily Summary

Daily Weather History Graph

Daily Weather History Graph

Search for Another Location

Airport or City:

Trip Planner

Search our weather history database for the weather conditions in past years. The results will help you decide how hot, cold, wet, or windy it might be!

Date:

Astronomy

Aug. 23, 2013 Rise Set
Actual Time 6:31 AM MDT 7:55 PM MDT
Civil Twilight 6:02 AM MDT 8:23 PM MDT
Nautical Twilight 5:29 AM MDT 8:56 PM MDT
Astronomical Twilight 4:53 AM MDT 9:32 PM MDT
Moon 9:16 PM MDT (8/23) 9:28 AM MDT (8/23)
Length of Visible Light 14h 20m
Length of Day
13h 23m
Waning Gibbous, 91% of the Moon is Illuminated
Aug 23
Waning Gibbous
Aug 28
Last Quarter
Sep 5
New
Sep 12
First Quarter
Sep 19
Full

Hourly Weather History & Observations

Time (MDT) Temp. Dew Point Humidity Pressure Visibility Wind Dir Wind Speed Gust Speed Precip Events Conditions
12:53 AM 71.1 °F 48.9 °F 45% 29.93 in 10.0 mi Variable 5.8 mph - N/A   Clear
1:53 AM 69.1 °F 51.1 °F 53% 29.94 in 10.0 mi ENE 3.5 mph - N/A   Clear
2:53 AM 64.0 °F 48.0 °F 56% 29.94 in 10.0 mi SE 3.5 mph - N/A   Clear
3:53 AM 63.0 °F 48.0 °F 58% 29.93 in 10.0 mi SE 3.5 mph - N/A   Clear
4:53 AM 61.0 °F 48.0 °F 62% 29.94 in 10.0 mi Calm Calm - N/A   Clear
5:53 AM 59.0 °F 48.0 °F 67% 29.95 in 10.0 mi ESE 4.6 mph - N/A   Clear
6:53 AM 57.9 °F 48.0 °F 70% 29.97 in 10.0 mi ESE 3.5 mph - N/A   Clear
7:53 AM 63.0 °F 50.0 °F 63% 29.97 in 10.0 mi Calm Calm - N/A   Clear
8:53 AM 66.9 °F 52.0 °F 59% 29.95 in 10.0 mi Calm Calm - N/A   Clear
9:53 AM 73.0 °F 53.1 °F 49% 29.93 in 10.0 mi Variable 3.5 mph - N/A   Clear
10:53 AM 77.0 °F 53.1 °F 43% 29.92 in 10.0 mi North 4.6 mph - N/A   Clear
11:53 AM 81.0 °F 50.0 °F 34% 29.88 in 10.0 mi Calm Calm - N/A   Clear
12:53 PM 86.0 °F 48.9 °F 28% 29.84 in 10.0 mi WNW 8.1 mph 17.3 mph N/A   Clear
1:53 PM 87.1 °F 51.1 °F 29% 29.83 in 10.0 mi ENE 12.7 mph 18.4 mph N/A   Partly Cloudy
2:13 PM 86.0 °F 51.8 °F 31% 30.06 in 10.0 mi ENE 15.0 mph 20.7 mph N/A   Clear
2:53 PM 86.0 °F 48.9 °F 28% 29.79 in 10.0 mi ENE 11.5 mph - N/A   Partly Cloudy
3:27 PM 71.6 °F 51.8 °F 50% 30.08 in 4.0 mi West 57.5 mph 67.9 mph N/A Thunderstorm Haze
3:34 PM 71.6 °F 50.0 °F 46% 30.08 in 5.0 mi West 51.8 mph 69.0 mph N/A Thunderstorm Haze
3:53 PM 73.0 °F 50.0 °F 44% 29.88 in 10.0 mi WSW 39.1 mph 50.6 mph N/A Thunderstorm Thunderstorm
4:48 PM 77.0 °F 48.2 °F 36% 30.09 in 10.0 mi East 16.1 mph 24.2 mph N/A   Mostly Cloudy
4:53 PM 72.0 °F 53.1 °F 51% 29.91 in 10.0 mi East 18.4 mph 31.1 mph N/A   Scattered Clouds
5:07 PM 71.6 °F 53.6 °F 53% 30.10 in 10.0 mi East 16.1 mph 24.2 mph N/A   Partly Cloudy
5:53 PM 73.0 °F 51.1 °F 46% 29.91 in 10.0 mi East 11.5 mph - N/A   Clear
6:53 PM 71.1 °F 51.1 °F 49% 29.88 in 10.0 mi East 5.8 mph - 0.00 in   Scattered Clouds
7:10 PM 69.8 °F 51.8 °F 53% 30.07 in 10.0 mi North 6.9 mph - N/A Thunderstorm Scattered Clouds
7:31 PM 69.8 °F 51.8 °F 53% 30.11 in 10.0 mi WNW 11.5 mph - N/A   Overcast
7:53 PM 66.9 °F 55.0 °F 66% 29.94 in 10.0 mi NW 8.1 mph - 0.00 in   Overcast
8:53 PM 66.0 °F 55.0 °F 68% 29.94 in 10.0 mi Calm Calm - 0.00 in   Partly Cloudy
9:53 PM 64.9 °F 55.9 °F 73% 29.94 in 10.0 mi ENE 6.9 mph - N/A   Scattered Clouds
10:53 PM 64.0 °F 55.0 °F 73% 29.92 in 10.0 mi ESE 4.6 mph - N/A   Clear
11:53 PM 63.0 °F 54.0 °F 72% 29.92 in 10.0 mi ESE 4.6 mph - N/A   Clear